Tanquary Camp, Nunavut

8:50 PM EST on December 11, 2017 (GMT -0500)
Tanquary Camp

Weather History for 71917 - August, 2014

Change the Weather History Date:

Friday, August 29, 2014

  Actual Average Record
Temperature  
Mean Temperature 34 °F -  
Max Temperature 37 °F 23 °F - ()
Min Temperature 32 °F 12 °F - ()
Degree Days  
Heating Degree Days 30    
Moisture  
Dew Point 30 °F    
Average Humidity 80    
Maximum Humidity 87    
Minimum Humidity 69    
Precipitation  
Precipitation 0.00 in 0.01 in - ()
Sea Level Pressure  
Sea Level Pressure 29.90 in    
Wind  
Wind Speed 10 mph ()    
Max Wind Speed 16 mph    
Max Gust Speed -    
Visibility 15.0 miles    
Events      
T = Trace of Precipitation, MM = Missing Value Source: Averaged Metar Reports

Daily Weather History Graph

Daily Weather History Graph

Search for Another Location

Airport or City:

Trip Planner

Search our weather history database for the weather conditions in past years. The results will help you decide how hot, cold, wet, or windy it might be!

Date:

Astronomy

Aug. 29, 2014 Rise Set
Actual Time 2:17 AM EDT 1:03 AM EDT
Civil Twilight Sun does not rise Sun does not rise
Nautical Twilight Sun does not rise Sun does not rise
Astronomical Twilight Sun does not rise Sun does not rise
Moon 2:34 PM EDT (8/29) 6:17 PM EDT (8/29)
Length of Visible Light 24h 00m
Length of Day
22h 46m
Waxing Crescent, 15% of the Moon is Illuminated
Aug 29
Waxing Crescent
Sep 2
First Quarter
Sep 8
Full
Sep 15
Last Quarter
Sep 24
New

Hourly Weather History & Observations

Time (EDT) Temp. Windchill Dew Point Humidity Pressure Visibility Wind Dir Wind Speed Gust Speed Precip Events Conditions
2:00 AM 34 °F - 29 °F 75% 29.86 in 15 mi SE 11.5 mph - -   Clear
2:00 AM 33.8 °F 24.8 °F 28.4 °F 81% 29.86 in 15.0 mi SE 12.7 mph - N/A   Overcast
3:00 AM 33.8 °F 25.3 °F 28.4 °F 81% 29.86 in 15.0 mi SE 11.5 mph - N/A   Overcast
4:00 AM 33.8 °F 25.3 °F 28.4 °F 81% 29.87 in 15.0 mi SE 11.5 mph - N/A   Overcast
5:00 AM 33.8 °F 24.3 °F 28.4 °F 81% 29.87 in 15.0 mi SE 13.8 mph - N/A   Overcast
6:00 AM 33.8 °F 25.8 °F 28.4 °F 81% 29.88 in 15.0 mi SE 10.4 mph - N/A   Overcast
7:00 AM 33.8 °F 25.8 °F 28.4 °F 81% 29.89 in 15.0 mi SE 10.4 mph - N/A   Overcast
8:00 AM 34 °F - 29 °F 77% 29.90 in 15 mi SSE 6.9 mph - -   Overcast
8:00 AM 33.8 °F 27.0 °F 30.2 °F 87% 29.90 in 15.0 mi SSE 8.1 mph - N/A   Overcast
9:00 AM 33.8 °F 26.4 °F 30.2 °F 87% 29.90 in 15.0 mi SSE 9.2 mph - N/A   Overcast
10:00 AM 35.6 °F 26.6 °F 30.2 °F 81% 29.90 in 15.0 mi SE 13.8 mph - N/A   Mostly Cloudy
11:00 AM 35.6 °F 27.1 °F 30.2 °F 81% 29.90 in 15.0 mi SSE 12.7 mph - N/A   Mostly Cloudy
12:00 PM 35.6 °F 27.5 °F 32.0 °F 87% 29.91 in 15.0 mi SSE 11.5 mph - N/A   Mostly Cloudy
1:00 PM 35.6 °F 28.6 °F 30.2 °F 81% 29.90 in 15.0 mi SE 9.2 mph - N/A   Mostly Cloudy
2:00 PM 36 °F - 31 °F 74% 29.90 in 15 mi SSE 13.8 mph - -   Scattered Clouds
2:00 PM 35.6 °F 26.6 °F 30.2 °F 81% 29.90 in 15.0 mi SSE 13.8 mph - N/A   Mostly Cloudy
3:00 PM 37.4 °F 28.5 °F 30.2 °F 75% 29.91 in 15.0 mi South 15.0 mph - N/A   Mostly Cloudy
4:00 PM 37.4 °F 28.5 °F 30.2 °F 75% 29.91 in 15.0 mi SSE 15.0 mph - N/A   Mostly Cloudy
5:00 PM 37.4 °F 28.2 °F 32.0 °F 81% 29.91 in 15.0 mi South 16.1 mph - N/A   Mostly Cloudy
6:00 PM 37.4 °F 30.3 °F 32.0 °F 81% 29.92 in 15.0 mi SSE 10.4 mph - N/A   Scattered Clouds
7:00 PM 37.4 °F 30.3 °F 32.0 °F 81% 29.92 in 15.0 mi SSE 10.4 mph - N/A   Partly Cloudy
8:00 PM 37 °F - 30 °F 69% 29.93 in 15 mi South 11.5 mph - -   Scattered Clouds
8:00 PM 37.4 °F 29.8 °F 30.2 °F 75% 29.93 in 15.0 mi South 11.5 mph - N/A   Partly Cloudy
9:00 PM 37.4 °F 30.3 °F 30.2 °F 75% 29.93 in 15.0 mi South 10.4 mph - N/A   Scattered Clouds
10:00 PM 35.6 °F 28.6 °F 30.2 °F 81% 29.94 in 15.0 mi SSE 9.2 mph - N/A   Partly Cloudy
11:00 PM 35.6 °F 28.6 °F 30.2 °F 81% 29.93 in 15.0 mi SSE 9.2 mph - N/A   Partly Cloudy